Skip Page Navigation
NASA JPL Caltech
NASA Logo - Jet Propulsion Laboratory + View the NASA Portal
+ Center for Near-Earth Object Studies
JPL Home Earth Solar System Stars & Galaxies Technology
JPL Solar System Dynamics
BODIES ORBITS EPHEMERIDES TOOLS PHYSICAL DATA DISCOVERY FAQ SITE MAP
JPL Small-Body Database Browser
Search: [ help ]  
(2017 MC4)
Classification: Apollo [NEO]          SPK-ID: 3776074
Ephemeris | Orbit Diagram | Orbital Elements | Mission Design | Physical Parameters | Close-Approach Data ]

[ hide orbit diagram ]

For accurate long-term ephemerides, please instead use our Horizons system.This orbit viewer was implemented using two-body methods, and hence should not be used for determining accurate long-term trajectories (over several years or decades) or planetary encounter circumstances.


Orbital Elements at Epoch 2459200.5 (2020-Dec-17.0) TDB
Reference: JPL 19 (heliocentric ecliptic J2000)
 Element Value Uncertainty (1-sigma)   Units 
e .6555944814585354 2.1622e-07  
a 1.138447532842541 1.8452e-07 au
q .3920876128808866 1.9793e-07 au
i 7.072796187107032 1.2128e-05 deg
node 111.1998789799089 1.5639e-05 deg
peri 300.2728669421317 1.8933e-05 deg
M 254.3524092219734 0.00022847 deg
tp 2459330.704218198511
(2021-Apr-26.20421820)
0.00031322 TDB
period 443.678064083342
1.21
0.00010787
2.953e-07
d
yr
n .8113991408247229 1.9727e-07 deg/d
Q 1.884807452804196 3.0549e-07 au
  Orbit Determination Parameters
   # obs. used (total)      156  
   data-arc span      623 days (1.71 yr)  
   first obs. used      2017-06-23  
   last obs. used      2019-03-08  
   planetary ephem.      DE441  
   SB-pert. ephem.      SB441-N16  
   condition code      2  
   norm. resid. RMS      .27566  
   source      ORB  
   producer      Otto Matic  
   solution date      2021-Apr-15 19:08:00  

Additional Information
 Earth MOID = .00710786 au 
 Jupiter MOID = 3.51836 au 
 T_jup = 5.272 
[ show covariance matrix ]

Ephemeris | Orbit Diagram | Orbital Elements | Mission Design | Physical Parameters | Close-Approach Data ]

Physical Parameter Table
Parameter Symbol Value Units Sigma Reference Notes
absolute magnitude H 22.0   n/a MPO419562  

[ show close-approach data ]
Ephemeris | Orbit Diagram | Orbital Elements | Mission Design | Physical Parameters | Close-Approach Data ]
ABOUT SSD CREDITS/AWARDS PRIVACY/COPYRIGHT GLOSSARY LINKS
FirstGov 2021-May-08 04:05 UT
(server date/time)  
NASA Home Page
Site Manager:   Ryan S. Park
Webmaster  Alan B. Chamberlin